Location: Isles
(48.9125°N, 2.8272°E)
Time: 12:49:07
(UTC+00:00)

Cosmos 1954 Rocket - Pass Details

Date: 03 February 2023
Orbit: 751 x 780 km, 74.0° (Epoch: 25 March)

Event Time Altitude Azimuth Distance (km) Brightness Sun altitude
Rises 18:10:31 0° 199° (SSW) 3,230 7.6 -13.6°
Reaches altitude 10° 18:12:54 10° 198° (SSW) 2,304 6.8 -14.0°
Maximum altitude 18:18:08 84° 111° (ESE) 775 3.9 -14.8°
Drops below altitude 10° 18:23:22 10° 24° (NNE) 2,301 6.2 -15.7°
Enters shadow 18:24:37 - 24° (NNE) 2,790 6.6 -15.9°
